Regional Weather Roundup
Issued by NWS

Home | Current Version | Previous Version | Text Only | Print | Product List | Glossary Off
Versions: 1 2 3 4 5 6 7 8 9 10 11 12 13 14 15 16 17 18 19 20 21 22 23 24 25 26 27 28 29 30 31 32 33 34 35 36 37 38 39 40 41 42 43 44 45 46 47 48 49 50

000
ASUS43 KDTX 210310
RWRMI
MICHIGAN HOURLY REGIONAL WEATHER ROUNDUP
NATIONAL WEATHER SERVICE DETROIT/PONTIAC MI
1000 PM EST SAT JAN 20 2018

NOTE: "FAIR" INDICATES FEW OR NO CLOUDS BELOW 12,000 FEET WITH NO
SIGNIFICANT WEATHER AND/OR OBSTRUCTION TO VISIBILITY.

MIZ047>049-052>055-059>063-066>070-074>076-081>083-210400-
SOUTHEAST LOWER MICHIGAN

CITY           SKY/WX    TMP DP  RH WIND       PRES   REMARKS
ADRIAN         CLOUDY    36  32  85 SW6       30.05S WCI  31
ALMA           FAIR      36  31  82 SW3       29.99F
ANN ARBOR      FAIR      28  26  92 SW6       30.04R WCI  22
BAD AXE        FAIR      34  30  83 SW3       30.00R
CARO           FAIR      32  29  88 SW6       30.00R WCI  27
DETROIT CITY   FAIR      36  30  79 SW8       30.04R WCI  30
DETROIT        FAIR      33  30  88 SW8       30.05R WCI  26
FLINT          FAIR      35  28  75 SW7       30.02R WCI  29
GROSSE ILE     FAIR      32  30  92 SW5       30.04R WCI  27
HILLSDALE      CLOUDY    36  32  87 S6        30.02S WCI  31
HOWELL         FAIR      33  31  90 SW6       30.02R WCI  28

CITY           SKY/WX    TMP DP  RH WIND       PRES   REMARKS
JACKSON        CLOUDY    32  29  88 SW5       30.02S WCI  27
LAMBERTVILLE   CLOUDY    38  33  82 SW7       30.06R WCI  32
LANSING        FAIR      34  30  85 SW9       30.01S WCI  27
LAPEER         FAIR      35  29  78 W5        30.01R WCI  31
MASON          FAIR      34  28  80 CALM      30.02S
MONROE         FAIR      34  31  87 SW8       30.04S WCI  27
MT. CLEMENS    PTCLDY    35  28  77 SW8       30.01S WCI  28
PONTIAC        MOCLDY    33  29  85 S5        30.00R WCI  29
PORT HOPE        N/A     36  29  75 SW7       29.97R WCI  30
PORT HURON     FAIR      32  27  80 S3        30.02S
TRI CITIES     FAIR      35  31  85 SW7       30.00R WCI  29
MIDLAND        FAIR      37  31  81 CALM      29.98F
TROY           FAIR      35  30  82 SW6       30.05R WCI  30
SAGINAW HB     FAIR      34  30  86 SW6       30.00R WCI  29
$$
MIZ043>046-050>051-056>058-064>065-071>073-077>080-210400-
SOUTHWEST LOWER MICHIGAN

CITY           SKY/WX    TMP DP  RH WIND       PRES   REMARKS
BATTLE CREEK   CLOUDY    36  33  89 SW9       30.01S WCI  29
BENTON HARBOR  CLOUDY    39  34  82 S8        30.01S WCI  33
BIG RAPIDS     FAIR      32  28  85 CALM      29.97S
COLDWATER      CLOUDY    37  35  95 SW5       30.03S FOG     WCI  33
FREMONT        FAIR      32  28  84 CALM      29.98S
HOLLAND        FAIR      34  30  85 S7        29.99F WCI  28
GRAND RAPIDS   FAIR      32  27  81 S7        29.99F WCI  26
IONIA          FAIR      33  29  85 S7        29.99F WCI  27
KALAMAZOO      CLOUDY    38  34  85 SW7       30.02S WCI  33
LUDINGTON      FAIR      29  29 100 SE3       29.96F FOG
MARSHALL       CLOUDY    35  34  95 SW5       30.02S WCI  31
MOUNT PLEASANT FAIR      37  30  78 W6        29.98S WCI  32
MUSKEGON       MOCLDY    34  29  82 SE6       29.99S WCI  29
SOUTH HAVEN    CLOUDY    39  34  83 S6        30.00S WCI  35
$$
MIZ016>042-210400-
NORTHERN LOWER MICHIGAN

CITY           SKY/WX    TMP DP  RH WIND       PRES   REMARKS
ALPENA         FAIR      32  31  96 CALM      29.98R
BEAVER ISLAND  CLOUDY    35  33  90 S5        29.95S WCI  31
BELLAIRE       CLOUDY    30  30 100 CALM      29.98S
CADILLAC       FAIR      34  30  87 SW5       29.95S WCI  29
CHARLEVOIX     CLOUDY    35  32  90 CALM      30.00R
FRANKFORT      FAIR      37  35  93 S3        29.96F
GAYLORD        CLOUDY    31  30  96 CALM      29.95R
GRAYLING       MOCLDY    32  28  87 CALM      29.97R
HARBOR SPRINGS CLOUDY    32  32 100 CALM      29.97R
HOUGHTON LAKE  FAIR      32  29  88 W3        29.96R
MANISTEE       FAIR      30  28  92 E3        29.97F FOG
OSCODA         FAIR      31  28  88 CALM      29.98R
PELLSTON       CLOUDY    32  30  92 CALM      29.97R
ROGERS CITY    CLOUDY    36  30  80 CALM      29.98R
TRAVERSE CITY  FAIR      32  29  88 SE3       29.96S
$$
MIZ007>008-015-210400-
EASTERN UPPER MICHIGAN

CITY           SKY/WX    TMP DP  RH WIND       PRES   REMARKS
KINROSS        CLOUDY    33  30  88 CALM      29.95R
MACKINAC ISLAN CLOUDY    34  31  89 SW7       29.95S WCI  28
NEWBERRY       CLOUDY    31  30  97 CALM      29.93S
S. S. MARIE    FAIR      37  30  75 CALM      29.94R
MUNISING         N/A     35  31  85 SW8       29.92R WCI  29
$$
MIZ004>006-011>014-085-210400-
CENTRAL UPPER MICHIGAN

CITY           SKY/WX    TMP DP  RH WIND       PRES   REMARKS
MANISTIQUE     CLOUDY    32  30  93 CALM      29.94S
ESCANABA       FAIR      33  29  85 CALM      29.94S
MENOMINEE      FAIR      34  29  82 CALM      29.94F
SAWYER-GWINN   PTCLDY    30  27  86 CALM      29.91R
$$
MIZ001>003-009>011-084-210400-
WESTERN UPPER MICHIGAN

CITY           SKY/WX    TMP DP  RH WIND       PRES   REMARKS
IRON MOUNTAIN  FAIR      29  25  85 CALM      29.89F
HOUGHTON       FAIR      27  24  89 CALM      29.87S
COPPER HARBOR    N/A     34  29  82 SW3       29.89F
IRONWOOD       FAIR      34  28  79 CALM      29.88F
$$

ABBREVIATIONS USED IN REMARKS
   TC - TEMPERATURE IN CELSIUS
  WCI - WIND CHILL INDEX
   HX - HEAT INDEX
  VSB - VISIBILITY





USA.gov is the U.S. government's official web portal to all federal, state and local government web resources and services.